Regional Weather Roundup
Issued by NWS

Current Version | Previous Version | Text Only | Print | Product List | Glossary On
Versions: 1 2 3 4 5 6 7 8 9 10 11 12 13 14 15 16 17 18 19 20 21 22 23 24 25 26 27 28 29 30 31 32 33 34 35 36 37 38 39 40 41 42 43 44 45 46 47 48 49 50
267
ASUS43 KLMK 211910
RWRKY
KENTUCKY REGIONAL WEATHER ROUNDUP
NATIONAL WEATHER SERVICE LOUISVILLE KY
300 PM EDT WED APR 21 2021

NOTE "FAIR" INDICATES FEW OR NO CLOUDS BELOW 12,000 FEET
WITH NO SIGNIFICANT WEATHER AND/OR OBSTRUCTIONS TO VISIBILITY.

KYZ001>023-026-027-061>063-070>075-212000-
WESTERN AND SOUTH CENTRAL KENTUCKY

CITY           SKY/WX    TMP DP  RH WIND       PRES   REMARKS
PADUCAH        MOSUNNY   53  23  31 N10       30.22F
HENDERSON      MOSUNNY   49  24  37 NW15G21   30.20F
OWENSBORO      PTSUNNY   49  25  39 NW7       30.21S
HOPKINSVILLE   MOSUNNY   48  24  39 NW6G18    30.21F
BOWLING GREEN  PTSUNNY   48  27  44 NW7       30.21F
GLASGOW        PTSUNNY   45  25  46 W10G18    30.20F
$$

KYZ024-025-028>034-038-045-046-053-212000-
NORTH CENTRAL KENTUCKY

CITY           SKY/WX    TMP DP  RH WIND       PRES   REMARKS
LOUISVILLE/SDF PTSUNNY   46  31  55 W14G28    30.19R
LOUISVILLE/LOU CLOUDY    41  29  62 N15G26    30.18S
FORT KNOX      PTSUNNY   44  30  58 NW13G20   30.18S
$$

KYZ035>037-039>044-047>052-055>060-089>105-212000-
NORTHEAST KENTUCKY

CITY           SKY/WX    TMP DP  RH WIND       PRES   REMARKS
LEXINGTON      PTSUNNY   41  24  51 W10G20    30.15F
COVINGTON      PTSUNNY   41  22  46 NW17      30.13S
FRANKFORT      CLOUDY    42  25  50 N10G21    30.16S
$$

KYZ054-064>069-076>088-106>120-212000-
SOUTHEAST KENTUCKY

CITY           SKY/WX    TMP DP  RH WIND       PRES   REMARKS
JACKSON        CLOUDY    38  24  57 NW8G22    30.12S WCI  32
LONDON         CLOUDY    40  23  50 N9G21     30.15S WCI  34
SOMERSET       CLOUDY    41  19  42 NW8       30.19F
MIDDLESBORO    CLOUDY    42  26  54 N10G17    30.15S
MONTICELLO     CLOUDY    42  27  55 NW10G22   30.20F
$$





USA.gov is the U.S. government's official web portal to all federal, state and local government web resources and services.